This demonstration page uses our WeatherBlox Daily Observations layout. Learn more.

Left ArrowRight Arrow

Hourly Observations for October 25, 2018

Temp ( °F °C ) Dew Point ( °F °C ) Humidity (%) Winds ( mph kmh ) Pressure ( in mb ) Visibility ( mi km ) Precip ( " mm )
12:54 am 00:54 Cloudy 53 11.7 37 2.8 55 55 S 13 20 30.1 1019 10 16.0934 0 0
1:54 am 01:54 Cloudy 51 10.6 39 3.9 64 64 S 8 13 30.1 1019 10 16.0934 0 0
2:54 am 02:54 Cloudy with Light Rain 48 8.9 44 6.7 86 86 SE 7 11 30.1 1019 8 12.87472 0.02 0.508
3:54 am 03:54 Cloudy with Light Rain 48 8.9 45 7.2 89 89 S 3 6 30.08 1019 9 14.48406 0.03 0.762
4:54 am 04:54 Cloudy 47 8.3 44 6.7 90 90 ESE 6 9 30.06 1018 10 16.0934 0.01 0.254
5:12 am 05:12 Cloudy with Light Rain 48 8.9 45 7.2 89 89 ESE 5 7 30.09 1019 10 16.0934 0 0.0254
5:54 am 05:54 Cloudy with Light Rain 48 8.9 44 6.7 86 86 SSE 6 9 30.06 1018 10 16.0934 0.01 0.254
6:54 am 06:54 Cloudy with Light Rain 47 8.3 44 6.7 90 90 SSE 5 7 30.05 1018 9 14.48406 0.01 0.254
7:54 am 07:54 Cloudy with Light Rain 47 8.3 44 6.7 90 90 Calm 30.04 1017 7 11.26538 0.05 1.27
8:40 am 08:40 Cloudy with Light Rain 47 8.3 45 7.2 93 93 Calm 30.06 1018 6 9.65604 0.01 0.254
8:54 am 08:54 Cloudy with Light Rain 47 8.3 45 7.2 93 93 ESE 3 6 30.05 1018 5 8.0467 0.01 0.254
9:03 am 09:03 Cloudy with Light Rain 47 8.3 45 7.2 93 93 SE 3 6 30.09 1019 5 8.0467 0.01 0.254
9:44 am 09:44 Cloudy with Rain 47 8.3 45 7.2 93 93 SSE 7 11 30.09 1019 2 3.21868 0.05 1.27
9:54 am 09:54 Cloudy with Rain 47 8.3 45 7.2 93 93 SE 7 11 30.05 1018 2 3.21868 0.07 1.778
10:19 am 10:19 Cloudy with Light Rain 47 8.3 45 7.2 93 93 SSE 7 11 30.06 1018 4 6.43736 0.02 0.508
10:37 am 10:37 Cloudy with Light Rain 47 8.3 45 7.2 93 93 SSE 9 15 30.06 1018 4 6.43736 0.03 0.762
10:54 am 10:54 Cloudy with Light Rain 47 8.3 46 7.8 97 97 SSE 6 9 30.04 1017 4 6.43736 0.05 1.27
11:39 am 11:39 Cloudy with Light Rain 48 8.9 46 7.8 93 93 Calm 30.06 1018 7 11.26538 0.03 0.762
11:46 am 11:46 Cloudy with Light Rain 48 8.9 46 7.8 93 93 Calm 30.06 1018 7 11.26538 0.03 0.762
11:54 am 11:54 Cloudy with Light Rain 48 8.9 46 7.8 93 93 Calm 30.03 1017 7 11.26538 0.03 0.762
12:05 pm 12:05 Cloudy with Light Rain 48 8.9 46 7.8 93 93 Calm 30.06 1018 7 11.26538 0.01 0.254
12:07 pm 12:07 Cloudy with Light Rain 49 9.4 47 8.3 93 93 Calm 30.06 1018 7 11.26538 0.01 0.254
12:14 pm 12:14 Cloudy with Light Rain 49 9.4 47 8.3 93 93 Calm 30.06 1018 8 12.87472 0.01 0.254
12:54 pm 12:54 Cloudy with Light Rain 50 10 47 8.3 89 89 Calm 30.01 1016 8 12.87472 0.01 0.254
1:44 pm 13:44 Cloudy with Light Rain 50 10 48 8.9 93 93 SSE 3 6 30.03 1017 5 8.0467 0.01 0.254
1:51 pm 13:51 Cloudy with Light Rain 50 10 48 9 94 94 SE 3 6 30.03 1017 5 8.0467 0.01 0.254
1:54 pm 13:54 Cloudy with Light Rain 50 10 48 8.9 93 93 SE 3 6 29.99 1016 5 8.0467 0.01 0.254
2:16 pm 14:16 Cloudy with Light Rain 51 10.6 47 8.3 86 86 SSE 3 6 29.97 1015 7 11.26538 0.01 0.254
2:54 pm 14:54 Cloudy 51 10.6 46 7.8 83 83 Calm 29.96 1015 10 16.0934 0.01 0.254
3:54 pm 15:54 Cloudy with Light Rain 52 11.1 44 6.7 75 75 E 5 7 29.95 1014 10 16.0934 0 0.0254
4:54 pm 16:54 Cloudy 51 10.6 44 6.7 77 77 E 5 7 29.95 1014 10 16.0934 0 0.0254
5:54 pm 17:54 Cloudy 51 10.6 46 7.8 83 83 SE 5 7 29.94 1014 10 16.0934 0 0.0254
6:04 pm 18:04 Mostly Cloudy 50 10 44 6.7 80 80 SE 6 9 29.94 1014 10 16.0934 0 0
6:12 pm 18:12 Cloudy 50 10 45 7.2 83 83 ESE 7 11 29.94 1014 10 16.0934 0 0
6:54 pm 18:54 Cloudy 49 9.4 45 7.2 86 86 ESE 6 9 29.95 1014 10 16.0934 0 0
7:54 pm 19:54 Cloudy 48 8.9 46 7.8 93 93 ESE 5 7 29.96 1015 10 16.0934 0 0
8:10 pm 20:10 Cloudy 48 8.9 46 7.8 93 93 SE 6 9 30 1016 10 16.0934 0 0
8:54 pm 20:54 Cloudy 48 8.9 46 7.8 93 93 SE 3 6 29.96 1015 9 14.48406 0 0
9:17 pm 21:17 Cloudy 48 8.9 44 6.7 86 86 SE 8 13 29.97 1015 10 16.0934 0 0
9:20 pm 21:20 Cloudy 48 8.9 44 6.7 86 86 SE 7 11 29.97 1015 10 16.0934 0 0
9:25 pm 21:25 Cloudy 48 8.9 44 6.7 86 86 SE 6 9 29.97 1015 10 16.0934 0 0
9:54 pm 21:54 Cloudy with Light Rain 48 8.9 45 7.2 89 89 SE 7 11 29.96 1015 8 12.87472 0 0.0254
10:08 pm 22:08 Cloudy with Light Rain 48 8.9 45 7.2 89 89 SSE 5 7 30 1016 8 12.87472 0 0.0254
10:23 pm 22:23 Cloudy 48 8.9 45 7.2 89 89 SSE 7 11 30 1016 8 12.87472 0 0.0254
10:32 pm 22:32 Cloudy 48 8.9 45 7.2 89 89 S 6 9 30 1016 7 11.26538 0 0.0254
10:51 pm 22:51 Cloudy 46 8 45 7 93 93 SSE 7 11 30 1016 8 12.87472 0 0.0254
10:54 pm 22:54 Cloudy 47 8.3 45 7.2 93 93 S 6 9 29.97 1015 8 12.87472 0 0.0254
10:58 pm 22:58 Cloudy 47 8.3 45 7.2 93 93 S 6 9 30 1016 9 14.48406 0 0
11:15 pm 23:15 Cloudy 47 8.3 45 7.2 93 93 SSE 5 7 30 1016 8 12.87472 0 0
11:23 pm 23:23 Cloudy 47 8.3 45 7.2 93 93 SSE 7 11 29.97 1015 8 12.87472 0 0
11:54 pm 23:54 Cloudy 47 8.3 45 7.2 93 93 SSE 7 11 29.95 1014 8 12.87472 0 0.0254

Powered by AerisWeather